Location: Unspecified
(48.8656°N, 0.0000°E)
Time: 18:17:56
(UTC+00:00)

SR - Pass Details

Date: 03 July 2019
Orbit: 578 x 878 km, 66.7° (Epoch: 19 August)

Event Time Altitude Azimuth Distance (km) Brightness Sun altitude
Rises 00:50:13 0° 198° (SSW) 2,780 - -17.4°
Reaches altitude 10° 00:52:27 10° 193° (SSW) 1,888 - -17.3°
Exits shadow 00:55:06 34° 169° (S) 976 ? -17.2°
Maximum altitude 00:56:31 48° 118° (ESE) 773 ? -17.2°
Drops below altitude 10° 01:00:44 10° 45° (NE) 1,970 ? -17.0°
Sets 01:03:06 0° 40° (NE) 2,915 ? -16.9°
